Location: Unspecified
(50.7693°N, 0.0000°E)
Time: 21:18:34
(UTC+00:00)

Transit 2A - Pass Details

Date: 02 July 2019
Orbit: 594 x 964 km, 66.7° (Epoch: 19 July)

Event Time Altitude Azimuth Distance (km) Brightness Sun altitude
Rises 19:55:45 0° 149° (SSE) 3,637 8.9 1.7°
Reaches altitude 10° 20:00:19 10° 119° (ESE) 2,695 8.2 1.2°
Maximum altitude 20:02:20 12° 100° (E) 2,570 8.2 0.9°
Drops below altitude 10° 20:04:20 10° 82° (E) 2,677 8.4 0.6°
Sets 20:08:48 0° 52° (NE) 3,576 9.3 0.1°
